Other Public Products
Issued by NWS Grand Forks, ND

Home | Current Version | Previous Version | Graphics & Text | Print | Product List | Glossary On
Versions: 1 2 3 4 5 6 7 8 9 10 11 12 13 14 15 16 17 18 19 20 21 22 23 24 25 26 27 28 29 30 31 32 33 34 35 36 37 38 39 40 41 42 43 44 45 46 47 48 49 50
000
FPUS83 KFGF 271231
OPUFGF
PRAIRIE TO PINES WEATHER ROUNDUP
NATIONAL WEATHER SERVICE EASTERN NORTH DAKOTA/GRAND FORKS ND
700 AM CDT FRI MAY 27 2016

 **SATELLITE DATA USED TO AUGMENT SKY COVER AT AUTOMATED STATIONS**
 *****  WEATHER ACROSS EASTERN NORTH DAKOTA  *****

CITY           SKY/WX    TMP DP  RH WIND       PRES   REMARKS
GRAND FORKS    MOSUNNY   54  52  93 NW7       29.78S
6HR MIN TEMP:  51; 6HR MAX TEMP:  57;

GRAND FORKS AF SUNNY     52  52 100 CALM      29.79S
GRAND CITY NWS   N/A     57 N/A N/A NE3         N/A
BUXTON           N/A     59  58  97 NE6         N/A
DEVILS LAKE    FOG       50  48  93 CALM      29.81S VSB<1/4
FARGO          MOSUNNY   59  54  83 CALM      29.77S
6HR MIN TEMP:  56; 6HR MAX TEMP:  60;

WAHPETON ARPT  SUNNY     59  52  77 E6        29.76S
$$

 *****  WEATHER ACROSS CENTRAL AND WESTERN NORTH DAKOTA  *****

CITY           SKY/WX    TMP DP  RH WIND       PRES   REMARKS
JAMESTOWN      SUNNY     53  51  93 N9        29.78S FOG
6HR MIN TEMP:  50; 6HR MAX TEMP:  54;

BISMARCK       CLOUDY    50  50 100 N5        29.84S FOG
6HR MIN TEMP:  43; 6HR MAX TEMP:  52;

MINOT          CLEAR     56  52  86 W6        29.82F
6HR MIN TEMP:  55; 6HR MAX TEMP:  57; 6HR PCP:  0.01;

MINOT AFB      MOCLDY    52  52  98 NW5       29.81F
6HR MIN TEMP:  52; 6HR MAX TEMP:  55; 6HR PCP:  0.01;

GARRISON         N/A     50  49  96 NW6       29.83S
6HR MIN TEMP:  49; 6HR MAX TEMP:  52;

WILLISTON      CLOUDY    50  48  93 CALM      29.88S
6HR MIN TEMP:  46; 6HR MAX TEMP:  53;

DICKINSON      CLOUDY    43  41  93 CALM      29.85S
6HR MIN TEMP:  37; 6HR MAX TEMP:  50;

HETTINGER      PTCLDY    36  35  96 W6        29.86F
6HR MIN TEMP:  33; 6HR MAX TEMP:  41;

$$

 *****  OTHER OBSERVATIONS NORTHEAST NORTH DAKOTA  *****

CITY           SKY/WX    TMP DP  RH WIND       PRES   REMARKS
WALHALLA       FAIR      55  55 100 SW5       29.80R
LANGDON        PTSUNNY   55  55 100 NW8       29.80S
CAVALIER       FAIR      55  54  94 CALM      29.79S
GRAFTON        FAIR      55  55 100 CALM      29.82R
CANDO          FAIR      54  54 100 W5        29.83S
FORT TOTTEN      N/A     52  52 100 CALM      29.95S
ROLLA          PTSUNNY   54  54 100 NW8       29.82R
RUGBY          FAIR      52  52 100 NW8       29.81R
 ***** THE ABOVE OBSERVATIONS ARE NON NWS ARE NOT QUALITY
        CONTROLLED AND MAY MIS-REPORT RAIN FOR SNOW...
$$

 *****  OTHER OBSERVATIONS SOUTHEAST NORTH DAKOTA *****

CITY           SKY/WX    TMP DP  RH WIND       PRES   REMARKS
COOPERSTOWN    NOT AVBL
VALLEY CITY    FAIR      55  55 100 E6        29.82R
OAKES            N/A    N/A N/A N/A MISG        N/A
GWINNER        FAIR      57  55  94 CALM      29.77F
SHEYENNE NWR     N/A     56  54  92 E2        29.95S
BUFFALO          N/A     57  55  91 NE7         N/A
WYNDMERE         N/A     59  54  82 CALM        N/A
 ***** THE ABOVE OBSERVATIONS ARE NON NWS ARE NOT QUALITY
       CONTROLLED AND MAY MIS-REPORT RAIN FOR SNOW...
$$

  *****  WEATHER ACROSS NORTHERN MINNESOTA  *****

CITY           SKY/WX    TMP DP  RH WIND       PRES   REMARKS
FLAG ISLAND    MOSUNNY   57  54  88 CALM      29.79S FOG
WARROAD        FOG       54  50  87 CALM      29.81S VSB 1/4
ROSEAU         HAZE      54  48  82 CALM      29.80S VSB<1/4
HALLOCK        SUNNY     54  52  94 CALM      29.79S FOG
THF RVR FALLS  MOSUNNY   55  52  88 CALM      29.82R
6HR MIN TEMP:  54; 6HR MAX TEMP:  57;

HALSTAD        NOT AVBL
FOSSTON        MOSUNNY   55  54  94 CALM      29.80S
BAUDETTE       CLOUDY    55  52  89 SE6       29.81R
6HR MIN TEMP:  49; 6HR MAX TEMP:  55; 6HR PCP:  0.01;

WASKISH        SUNNY     59  55  88 CALM      29.80S
CROOKSTON      SUNNY     55  55 100 CALM      29.80S
$$
  *****  WEATHER ACROSS CENTRAL AND WEST MINNESOTA  *****

CITY           SKY/WX    TMP DP  RH WIND       PRES   REMARKS
BEMIDJI        MOSUNNY   57  53  85 E6        29.81S
PARK RAPIDS    CLOUDY    58  51  78 NE3       29.80F
6HR MIN TEMP:  51; 6HR MAX TEMP:  60;

WADENA         PTSUNNY   55  52  88 E8        29.77F
DETROIT LAKES  SUNNY     59  54  82 SE6       29.79F
MOORHEAD       MOSUNNY   57  54  88 CALM      29.77F
FERGUS FALLS   SUNNY     63  54  72 E7        29.74S
ELBOW LAKE     FAIR      62  54  73 NE8       29.76F
6HR MIN TEMP:  59; 6HR MAX TEMP:  62;

MORRIS MN      CLOUDY    63  54  72 NE10      29.72S
STAPLES        CLOUDY    55  48  76 NE6       29.78F
WHEATON        MOSUNNY   63  55  77 NE6       29.76F
$$
  *****  WEATHER ELSEWHERE ACROSS MINNESOTA  *****

CITY           SKY/WX    TMP DP  RH WIND       PRES   REMARKS
DULUTH         CLOUDY    54  50  86 E5        29.84F
6HR MIN TEMP:  49; 6HR MAX TEMP:  54;

INTRNTL FALLS  SUNNY     52  50  93 SE3       29.82F
6HR MIN TEMP:  44; 6HR MAX TEMP:  53;

ELY            MOSUNNY   52  50  93 CALM      29.86S
CLOQUET        CLOUDY    52  48  87 E3        29.84S
BRAINERD       CLOUDY    59  52  77 CALM      29.79F
6HR MIN TEMP:  51; 6HR MAX TEMP:  59;

HIBBING        CLOUDY    47  47 100 CALM      29.84F
6HR MIN TEMP:  41; 6HR MAX TEMP:  49;

ALEXANDRIA     CLOUDY    61  52  72 N8        29.76F
6HR MIN TEMP:  53; 6HR MAX TEMP:  64;

SAINT CLOUD    CLOUDY    60  55  83 E5        29.77F
6HR MIN TEMP:  57; 6HR MAX TEMP:  64;

MINNEAPOLIS    CLOUDY    67  56  67 SE8       29.79S
6HR MIN TEMP:  67; 6HR MAX TEMP:  70; 6HR PCP: TRACE;

$$

  *****  WEATHER ACROSS SOUTH DAKOTA  *****

CITY           SKY/WX    TMP DP  RH WIND       PRES   REMARKS
SIOUX FALLS    CLOUDY    61  55  81 SE5       29.73F
6HR MIN TEMP:  55; 6HR MAX TEMP:  63; 6HR PCP: TRACE;

BROOKINGS      NOT AVBL
WATERTOWN      PTSUNNY   58  54  86 CALM      29.74F
6HR MIN TEMP:  56; 6HR MAX TEMP:  62; 6HR PCP: TRACE;

HURON          CLOUDY    58  57  97 MISG      29.72S
6HR MIN TEMP:  56; 6HR MAX TEMP:  61;

SISSETON         N/A     56  54  93 NW3       29.74F
ABERDEEN       PTCLDY    55  52  89 CALM      29.76S
6HR MIN TEMP:  54; 6HR MAX TEMP:  65;

MITCHELL       CLOUDY    59  58  96 CALM      29.70F
PIERRE         MOCLDY    53  48  83 NW13      29.74S
6HR MIN TEMP:  53; 6HR MAX TEMP:  59;

MOBRIDGE       PTCLDY    53  47  79 NW12      29.77F
RAPID CITY     CLOUDY    50  43  77 NW7       29.85S
6HR MIN TEMP:  48; 6HR MAX TEMP:  51;

$$

  *****  SOME WEATHER IN NEARBY STATES *****

CITY           SKY/WX    TMP DP  RH WIND       PRES   REMARKS
GLASGOW MT     PTCLDY    47  46  97 E5        29.88F
6HR MIN TEMP:  47; 6HR MAX TEMP:  53;

GREAT FALLS MT CLEAR     42  39  89 S8        29.87S
6HR MIN TEMP:  37; 6HR MAX TEMP:  48;

CHEYENNE WY    CLOUDY    45  36  70 NW16      29.88F
6HR MIN TEMP:  44; 6HR MAX TEMP:  49;

SCOTTSBLUFF NE CLOUDY    51  47  86 N12       29.83S
6HR MIN TEMP:  50; 6HR MAX TEMP:  53; 6HR PCP:  0.01;

OMAHA NE       PTSUNNY   63  59  87 N6        29.74R
6HR MIN TEMP:  62; 6HR MAX TEMP:  65;

DES MOINES IA  LGT RAIN  64  60  87 E8        29.76F
6HR MIN TEMP:  63; 6HR MAX TEMP:  65; 6HR PCP: TRACE;

DAVENPORT IA   CLOUDY    65  61  87 S14       29.84R
6HR MIN TEMP:  63; 6HR MAX TEMP:  70; 6HR PCP:  0.24;

CHICAGO IL     CLOUDY    68  64  87 S7        29.88R
6HR MIN TEMP:  66; 6HR MAX TEMP:  74;

EAU CLAIRE WI  CLOUDY    61  58  90 CALM      29.84S
6HR MIN TEMP:  57; 6HR MAX TEMP:  62;

LA CROSSE WI   LGT RAIN  65  62  90 S8        29.85R
6HR MIN TEMP:  64; 6HR MAX TEMP:  67; 6HR PCP:  0.01;

$$

  *****  SOME NATIONAL WEATHER *****

CITY           SKY/WX    TMP DP  RH WIND       PRES   REMARKS
LA GUARDIA NY  CLOUDY    74  64  71 S7          N/A
6HR MIN TEMP:  68; 6HR MAX TEMP:  74;                              C1F1C2F2C3F3C4F4C5F5C6F6C7F7C8F8C9F9CaFaCbFbCcFcCdFdCe!


USA.gov is the U.S. government's official web portal to all federal, state and local government web resources and services.